Simultaneous Nadir Overpasses (SNOs) Predictions

Prediction of SNOs between GOES-16 and METOP-B Satellite Orbit:

Table of predicted SNOs for the next 14.0 days since TLE Epoch: 7/6/2018
Index Date Time (GOES-16) GOES-16 Lat,Lon METOP-B Lat,Lon Distance(km) Time Diff (sec)
1 07/08/2018 02:48:20 0.02, -75.19 -0.92, -79.45 485.48 80
2 07/09/2018 02:24:59 -0.01, -75.19 0.17, -74.46 84.53 80
3 07/10/2018 14:46:30 0.01, -75.21 0.86, -79.01 433.56 80
4 07/11/2018 14:23:09 0.01, -75.21 -0.24, -74.02 135.90 80
5 07/13/2018 02:44:49 -0.01, -75.21 -0.76, -78.62 388.50 80
6 07/14/2018 02:21:28 -0.00, -75.21 0.34, -73.62 181.14 80
7 07/15/2018 14:42:59 -0.01, -75.23 0.63, -78.19 336.39 80
8 07/16/2018 14:19:39 -0.01, -75.24 -0.47, -73.19 233.71 80
9 07/18/2018 02:41:18 0.02, -75.25 -0.53, -77.79 289.35 80
10 07/19/2018 02:17:58 0.02, -75.26 0.57, -72.79 281.34 80
11 07/20/2018 14:39:28 -0.02, -75.30 0.46, -77.35 234.47 80




NCC Satellite Simultaneous Nadir Overpasses (SNOs) Prediction Service
